Flag for Luxembourg Weather past 2 weeks in Esch-sur-Alzette, Luxembourg

Now
34 °F

Passing clouds.


Feels Like: 34 °F
Forecast: 30 / 35 °F
Wind: No wind

Location: Luxembourg Airport

Current Time: Dec 26, 2014 at 8:22:56 AM

Latest Report: Dec 26, 2014 at 7:50 AM


Visibility: 4 mi

Pressure: 30.39 "Hg

Humidity: 100%

Dew point: 34 °F

Location of Esch-sur-AlzetteLocation

Historic Weather in Esch-sur-Alzette — Graph

°F

Esch-sur-Alzette temperature yesterday

Maximum temperature yesterday: 41 °F (at 12:20 AM)
Minimum temperature yesterday: 36 °F (at 6:20 AM)
Average temperature yesterday: 37 °F

Past Weeks' High & Low Weather Summary

 TemperatureHumidityPressure
High52 °F (Dec 18, 10:50 AM)100% (Dec 11, 10:20 AM)30.48 "Hg (Dec 11, 10:20 AM)
Low28 °F (Dec 15, 7:20 AM)81% (Dec 14, 11:20 AM)29.59 "Hg (Dec 12, 2:20 PM)
Average41 °F96%30.05 "Hg
* Reported Dec 11 6:20 AM — Dec 26 6:50 AM, Esch-sur-Alzette, Weather by CustomWeather, © 2014

Note: Actual official high and low records may vary slightly from our data, if they occured in-between our weather recording intervals... More about our weather records

Advertising

Esch-sur-Alzette weather history for previous 24 hours

 ConditionsComfort  
Time TempWeatherWind HumidityBarometerVisibility
6:50 AM
Dec 26
36 °FPassing clouds.2 mph100%30.39 "Hg4 mi
6:20 AM36 °FDrizzle. Fog.3 mph100%30.39 "Hg2 mi
5:50 AM36 °FPartly cloudy.3 mph100%30.36 "Hg3 mi
5:20 AM36 °FPartly cloudy.8 mph100%30.36 "Hg2 mi
4:50 AM36 °FPartly cloudy.7 mph100%30.36 "Hg2 mi
4:20 AM36 °FPartly cloudy.6 mph100%30.36 "Hg3 mi
3:50 AM36 °FPartly cloudy.3 mph100%30.36 "Hg5 mi
3:20 AM36 °FChilly.6 mph100%30.36 "Hg5 mi
2:50 AM36 °FChilly.5 mph100%30.36 "Hg6 mi
2:20 AM36 °FChilly.6 mph100%30.36 "HgN/A
1:50 AM36 °FChilly.6 mph100%30.36 "Hg6 mi
1:20 AM36 °FPartly cloudy.6 mph100%30.36 "HgN/A
12:50 AM36 °FLight rain. Partly cloudy.8 mph100%30.36 "HgN/A
12:20 AM36 °FPassing clouds.9 mph100%30.36 "HgN/A
11:50 PM
Dec 25
36 °FPassing clouds.9 mph100%30.36 "HgN/A
11:20 PM37 °FPassing clouds.9 mph93%30.36 "HgN/A
10:50 PM37 °FPassing clouds.8 mph93%30.36 "HgN/A
10:20 PM36 °FPassing clouds.8 mph100%30.36 "HgN/A
9:50 PM36 °FPassing clouds.9 mph100%30.36 "HgN/A
9:20 PM36 °FPassing clouds.9 mph100%30.36 "HgN/A
8:50 PM36 °FPassing clouds.9 mph100%30.33 "HgN/A
8:20 PM37 °FPassing clouds.8 mph93%30.33 "HgN/A
7:50 PM37 °FPassing clouds.6 mph93%30.33 "HgN/A
7:20 PM37 °FPassing clouds.7 mph93%30.33 "HgN/A
6:50 PM37 °FPassing clouds.9 mph93%30.33 "HgN/A
6:20 PM37 °FPassing clouds.9 mph93%30.33 "HgN/A
5:50 PM37 °FPassing clouds.8 mph93%30.30 "HgN/A
5:20 PM37 °FPassing clouds.8 mph93%30.30 "HgN/A
4:50 PM39 °FPartly cloudy.9 mph93%30.30 "HgN/A
4:20 PM39 °FBroken clouds.10 mph93%30.30 "HgN/A
3:50 PM39 °FBroken clouds.9 mph87%30.30 "HgN/A
3:20 PM39 °FBroken clouds.12 mph81%30.30 "HgN/A
2:50 PM39 °FPartly sunny.13 mph81%30.30 "HgN/A
2:20 PM39 °FBroken clouds.10 mph87%30.30 "HgN/A
1:50 PM39 °FScattered clouds.12 mph87%30.27 "HgN/A
1:20 PM39 °FPartly sunny.14 mph87%30.27 "HgN/A
12:50 PM37 °FPartly sunny.10 mph93%30.30 "HgN/A
12:20 PM37 °FScattered clouds.10 mph93%30.30 "HgN/A
11:50 AM37 °FPartly sunny.14 mph93%30.30 "HgN/A
11:20 AM37 °FPassing clouds.13 mph93%30.30 "HgN/A
10:50 AM36 °FPassing clouds.15 mph100%30.27 "HgN/A
10:20 AM36 °FSunny.13 mph100%30.27 "Hg10 mi
9:50 AM36 °FSunny.12 mph100%30.27 "Hg10 mi
9:20 AM36 °FSunny.12 mph100%30.24 "Hg10 mi
8:50 AM36 °FSunny.10 mph100%30.24 "Hg10 mi
8:20 AM36 °FClear.13 mph100%30.24 "Hg10 mi
Weather by CustomWeather, © 2014

See weather overviewHow to use our weather pages